Location: Arleux
(50.3632°N, 2.8721°E)
Time: 08:40:58
(UTC+00:00)

N. Korean satellite - Visible Passes

Search period start: 06 March 2021 00:00
Search period end: 16 March 2021 00:00
Orbit: 451 x 502 km, 97.2° (Epoch: 05 March)

Date Brightness Start Highest point End Pass type
(mag) Time Alt. Az. Time Alt. Az. Time Alt. Az.
06 Mar 10.0 04:06:08 10° ENE 04:07:18 11° E 04:08:26 10° ESE visible
06 Mar 6.5 05:37:28 10° N 05:40:59 66° WNW 05:44:34 10° SSW visible
07 Mar 7.2 05:10:41 10° NNE 05:14:14 59° ESE 05:17:47 10° S visible
08 Mar 8.7 04:44:11 10° NNE 04:47:21 29° E 04:50:32 10° SSE visible
09 Mar 9.7 04:18:08 10° NE 04:20:23 16° E 04:22:38 10° SE visible
10 Mar 6.6 05:23:35 10° NNE 05:27:11 85° ESE 05:30:49 10° SSW visible
11 Mar 8.0 04:56:55 10° NNE 05:00:20 41° E 05:03:47 10° S visible
12 Mar 9.3 04:30:34 10° NE 04:33:24 21° E 04:36:14 10° SE visible
13 Mar 10.0 04:05:06 10° ENE 04:06:21 11° E 04:07:35 10° ESE visible
14 Mar 7.3 05:09:39 10° NNE 05:13:14 58° E 05:16:51 10° S visible
15 Mar 8.8 04:43:07 10° NNE 04:46:20 29° E 04:49:33 10° SSE visible
